• Join FlightAware (Why Join?)
  • Login
  • US Flag 
10:36AM EDT


 

Airport Tracker/Info


-or-


 

Live Flight TrackerFlight Track Log ✈ SWA378 ✈ 30-Apr-2013 ✈ KSJC - KLAX

Flight Track Log - Related Links

Times and Time Zones

All times are in EDT time to prevent confusion due to time zone crossing. See the SWA378 flight status page for this flight to view local times or setup timezone preferences in your user account.

Time Position Orientation Groundspeed Altitude Reporting Facility
EDT Latitude Longitude Course Direction KTS MPH feet Rate Location/Type
11:35AM 37.3833 -121.9500 338° Northwest 151 174 1,600  Level Northern Cal TRACON
11:36AM 37.4167 -121.9667 338° Northwest 194 223 4,400 2,040 Climbing Northern Cal TRACON
11:37AM 37.4167 -121.9000 90° East 230 265 5,700 2,160 Climbing Northern Cal TRACON
11:39AM 37.3319 -121.8092 140° Southeast 267 307 9,800 2,820 Climbing Oakland Center
11:40AM 37.2622 -121.7297 138° Southeast 339 390 12,800 3,240 Climbing Oakland Center
11:41AM 37.1831 -121.6422 139° Southeast 377 434 16,500 3,540 Climbing Oakland Center
11:42AM 37.1006 -121.5525 139° Southeast 392 451 20,000 3,120 Climbing Oakland Center
11:43AM 37.0144 -121.4542 138° Southeast 413 475 23,000 2,820 Climbing Oakland Center
11:44AM 36.9253 -121.3550 138° Southeast 428 493 25,800 2,520 Climbing Oakland Center
11:45AM 36.8325 -121.2514 138° Southeast 445 512 28,200 2,340 Climbing Oakland Center
11:46AM 36.7275 -121.1417 140° Southeast 460 529 30,600 2,040 Climbing Oakland Center
11:47AM 36.6297 -121.0328 138° Southeast 470 541 32,500 2,160 Climbing Oakland Center
11:48AM 36.5317 -120.9247 138° Southeast 471 542 35,100 2,280 Climbing Oakland Center
11:49AM 36.4364 -120.8208 139° Southeast 457 526 37,200 1,680 Climbing Oakland Center
11:50AM 36.3417 -120.7158 138° Southeast 457 526 38,600 1,560 Climbing Oakland Center
11:51AM 36.2244 -120.5928 140° Southeast 459 528 40,400 1,140 Climbing Oakland Center
11:52AM 36.1286 -120.4897 139° Southeast 456 525 41,000 240 Climbing Oakland Center
11:53AM 36.0322 -120.3878 139° Southeast 455 524 41,000  Level Oakland Center
11:54AM 35.9369 -120.2842 139° Southeast 454 522 41,000  Level Oakland Center
11:55AM 35.8417 -120.1831 139° Southeast 450 518 41,000  Level Oakland Center
11:56AM 35.7467 -120.0822 139° Southeast 447 514 41,000  Level Oakland Center
11:57AM 35.6514 -119.9831 140° Southeast 444 511 41,000  Level Oakland Center
11:58AM 35.5500 -119.8942 144° Southeast 444 511 41,000  Level Oakland Center
11:59AM 35.4492 -119.8064 145° Southeast 442 509 41,000  Level Oakland Center
12:00PM 35.3494 -119.7211 145° Southeast 437 503 41,000 -600 Level Oakland Center
12:01PM 35.2500 -119.6361 145° Southeast 434 499 39,800 -1,980 Descending Oakland Center
12:03PM 35.1328 -119.5350 145° Southeast 434 499 36,700 -3,060 Descending Los Angeles Center
12:04PM 35.0083 -119.4308 146° Southeast 448 516 33,000 -2,940 Descending Los Angeles Center
12:05PM 34.9264 -119.3597 145° Southeast 450 518 30,700 -2,580 Descending Los Angeles Center
12:06PM 34.8061 -119.2583 145° Southeast 440 506 27,700 -2,640 Descending Los Angeles Center
12:07PM 34.7097 -119.1756 145° Southeast 428 493 25,300 -2,400 Descending Los Angeles Center
12:08PM 34.6069 -119.0903 146° Southeast 416 479 22,800 -2,340 Descending Los Angeles Center
12:09PM 34.5164 -119.0139 145° Southeast 399 459 20,500 -2,220 Descending Los Angeles Center
12:10PM 34.4281 -118.9419 146° Southeast 384 442 18,300 -2,160 Descending Los Angeles Center
12:11PM 34.3417 -118.8750 147° Southeast 368 423 16,100 -2,400 Descending Los Angeles Center
12:12PM 34.2250 -118.8322 163° South 365 420 13,300 -1,980 Descending Los Angeles Center
12:13PM 34.1308 -118.7986 164° South 354 407 12,000 -840 Descending Los Angeles Center
12:14PM 34.0425 -118.7506 156° South 344 396 11,600 -840 Descending Los Angeles Center
12:15PM 34.0278 -118.6375 99° East 318 366 10,300 -1,260 Descending Los Angeles Center
12:16PM 34.0178 -118.5356 97° East 307 353 9,000 -1,320 Descending Los Angeles Center
12:17PM 34.0100 -118.4483 96° East 307 353 7,700 -1,500 Descending Los Angeles Center
12:18PM 34.0217 -118.3475 82° East 288 331 5,900 -1,740 Descending Los Angeles Center
12:19PM 34.0389 -118.2361 79° East 281 323 4,100 -1,320 Descending Los Angeles Center
12:20PM 34.0533 -118.1561 78° East 246 283 3,200 -780 Descending Los Angeles Center
12:21PM 34.0333 -118.1000 113° Southeast 225 259 2,700 -300 Descending Southern California TRACON
12:22PM 33.9833 -118.1333 209° Southwest 216 249 2,700  Level Southern California TRACON
12:23PM 33.9667 -118.2000 253° West 212 244 2,700 -180 Level Southern California TRACON
12:24PM 33.9667 -118.2667 270° West 195 224 2,400 -480 Descending Southern California TRACON
12:24PM 33.9639 -118.2842 259° West 192 221 2,100 -720 Descending Los Angeles Center
12:26PM 33.9592 -118.3333 263° West 151 174 1,300 -720 Descending Los Angeles Center
12:27PM 33.9544 -118.3869 264° West 136 157 500 -540 Descending Los Angeles Center
12:28PM 33.9506 -118.4275 263° West 135 155 200 -300 Descending Los Angeles Center